FW1389 Weather Reports


time (UTC)temp
C
wind
direction
speed
KPH
gust
KPH
rain 1hr
cm
rain 24hr
cm
rain mn
cm
humidity
%
barometer
mb
20260503050049 11 254 0.0 3.2 0.00 2.18 0.38 97 1012.4
20260503044548 11 254 0.0 3.2 0.00 2.18 0.38 97 1012.3
20260503043049 11 254 0.0 3.2 0.00 2.18 0.38 97 1012.4
20260503041546 11 254 0.0 1.6 0.00 2.18 0.38 97 1012.4
20260503040059 11 254 0.0 1.6 0.00 2.18 0.38 97 1012.5
20260503034545 11 254 0.0 1.6 0.00 2.18 0.38 97 1012.6
20260503033043 11 254 0.0 3.2 0.00 2.18 0.38 97 1012.7
20260503031550 11 254 0.0 3.2 0.00 2.18 0.38 97 1012.7
20260503030047 11 254 0.0 1.6 0.03 2.18 0.38 97 1012.6
20260503024538 12 254 0.0 1.6 0.03 2.18 0.38 97 1012.7
20260503023038 12 254 0.0 1.6 0.05 2.18 0.38 97 1012.7
20260503021536 12 254 0.0 3.2 0.05 2.18 0.38 97 1012.8
20260503020037 12 254 0.0 0.0 0.05 2.16 0.36 98 1012.9
20260503014533 12 254 0.0 0.0 0.03 2.13 0.33 97 1013.0
20260503013036 12 254 0.0 1.6 0.03 2.13 0.33 97 1013.2
20260503011531 12 254 0.0 3.2 0.03 2.13 0.33 97 1013.4
20260503010035 12 254 0.0 3.2 0.00 2.11 0.30 97 1013.4
20260503004529 12 254 0.0 0.0 0.00 2.11 0.30 97 1013.5
20260503003027 12 254 0.0 0.0 0.03 2.11 0.30 97 1013.6
20260503001527 12 254 0.0 0.0 0.08 2.11 0.30 97 1013.7
20260503000024 12 254 0.0 1.6 0.18 2.11 0.30 97 1014.0
20260502234528 12 254 0.0 1.6 0.28 2.11 0.30 97 1013.9
20260502233025 12 254 0.0 3.2 0.28 2.08 0.28 97 1014.0
20260502231521 12 254 0.0 4.8 0.23 2.03 0.23 97 1014.0
20260502230026 12 254 0.0 6.4 0.13 1.93 0.13 97 1014.1
20260502224519 12 254 0.0 6.4 0.03 1.83 0.03 97 1014.2
20260502223019 12 244 0.0 4.8 0.00 1.80 0.00 97 1014.2
20260502221517 12 244 0.0 0.0 0.00 1.80 0.00 97 1014.2
20260502220116 12 244 0.0 3.2 0.00 1.80 0.00 97 1014.1
20260502214559 12 244 0.0 3.2 0.00 1.80 1.80 97 1014.3
20260502213101 12 244 0.0 4.8 0.00 1.80 1.80 97 1014.3
20260502211559 12 244 1.6 6.4 0.00 1.80 1.80 97 1014.2
20260502210115 12 240 0.0 4.8 0.00 1.80 1.80 97 1014.2
20260502204559 12 244 0.0 4.8 0.00 1.80 1.80 97 1014.2
20260502203057 12 246 1.6 8.0 0.00 1.80 1.80 97 1014.2
20260502201557 12 282 1.6 6.4 0.00 1.80 1.80 97 1014.0
20260502200057 12 298 3.2 9.7 0.00 1.80 1.80 97 1014.0
20260502194556 12 283 3.2 6.4 0.00 1.80 1.80 97 1013.9
20260502193103 12 306 3.2 9.7 0.08 1.80 1.80 97 1013.9
20260502191600 12 290 0.0 6.4 0.08 1.80 1.80 97 1013.7
20260502190108 12 290 1.6 4.8 0.10 1.80 1.80 97 1013.6
20260502184600 12 290 0.0 4.8 0.10 1.80 1.80 97 1013.6
20260502183110 12 291 1.6 3.2 0.15 1.73 1.73 97 1013.7
20260502181552 12 291 0.0 4.8 0.33 1.73 1.73 97 1013.6
20260502163054 13 300 1.6 6.4 0.13 1.35 1.35 96 1013.6
20260502161559 12 314 1.6 12.9 0.10 1.32 1.32 95 1013.6
20260502151545 13 320 4.8 12.9 0.20 1.22 1.22 96 1014.0
20260502123037 15 19 0.0 0.0 0.00 0.13 0.13 87 1014.5
20260502121544 15 19 0.0 3.2 0.00 0.13 0.13 87 1014.7
20260502114531 15 19 0.0 3.2 0.00 0.13 0.13 88 1015.1
20260502113028 15 19 0.0 1.6 0.00 0.13 0.13 87 1015.1
20260502111529 15 19 0.0 0.0 0.00 0.13 0.13 87 1015.3
20260502110028 15 19 0.0 1.6 0.00 0.13 0.13 86 1015.2
20260502104525 15 19 0.0 0.0 0.00 0.13 0.13 88 1015.3
20260502103028 15 19 0.0 1.6 0.00 0.13 0.13 89 1015.4
20260502101534 15 19 0.0 1.6 0.00 0.13 0.13 90 1015.5
20260502091514 13 19 0.0 0.0 0.13 0.13 0.13 93 1015.7
20260502071502 12 19 0.0 0.0 0.00 0.00 0.00 88 1015.7
20260502070002 12 19 0.0 0.0 0.00 0.00 0.00 88 1015.7
20260502064501 12 19 0.0 3.2 0.00 0.00 0.00 88 1015.6
20260502063003 12 19 0.0 0.0 0.00 0.00 0.00 88 1015.8
20260502061601 12 19 0.0 0.0 0.00 0.00 0.00 88 1015.7
20260502060100 12 19 0.0 0.0 0.00 0.00 0.00 89 1015.7
20260502054558 12 19 0.0 0.0 0.00 0.00 0.00 90 1015.6
20260502053117 12 19 0.0 0.0 0.00 0.00 0.00 90 1015.5
20260502051606 12 19 0.0 0.0 0.00 0.00 0.00 90 1015.6